Find Local Weather

World > North America > United States > New York

Solon Pond, New York Regional Weather

Lat: 42.62N, Lon: 75.92W
Wx Zone: NYZ044
Feedback
Expires:201806221000;;924677
ASUS41 KALY 220910
RWRALY

NEW YORK STATE HOURLY WEATHER ROUNDUP
NATIONAL WEATHER SERVICE ALBANY NY
500 AM EDT FRI JUN 22 2018

NOTE: "FAIR" INDICATES FEW OR NO CLOUDS BELOW 12,000 FEET WITH NO
SIGNIFICANT WEATHER AND/OR NO OBSTRUCTIONS TO VISIBILITY.


NYZ005>009-017-018-044>046-055-056-221000-
CENTRAL

  
CITY           SKY/WX    TMP DP  RH WIND       PRES   REMARKS
FULTON         FAIR      48  40  73 CALM      29.97R                  
SYRACUSE       FAIR      48  48 100 E3        29.97R                  
ROME           FAIR      47  43  86 VRB3      30.00R                  
ELMIRA         FAIR      44  43  96 CALM      29.97R                  
BINGHAMTON     FAIR      50  43  77 NE7       29.97R                  
MONTICELLO       N/A    N/A N/A N/A MISG        N/A                   
$$


SKY/WX - Weather  TMP - Temperature  DP - Dewpoint  RH - Relative Humidity
WIND - Wind Direction/Speed PRES - Barometric Pressure